Theta_e
325 324 324 325 324 324 323 324 324 325 324 325 322 323 322 323 323 317 305 311 315 326 318 308 309 309 310 307 306 307 302 299 299 299 301 304 303 304 306 306 309 313 310 315 331
324 324 325 325 325 324 322 324 324 323 322 322 322 321 321 322 312 306 317 323 327 327 309 308 305 305 304 305 306 306 301 299 302 303 302 303 304 305 304 304 305 308 312 323 332
324 323 324 324 325 324 322 324 324 323 322 321 320 320 321 319 305 303 324 326 329 322 310 309 308 305 302 304 303 302 301 301 300 301 303 303 302 305 305 303 307 307 310 324 327
323 323 323 323 323 323 324 323 323 321 320 320 320 320 320 314 293 309 325 327 327 312 308 307 306 303 301 300 300 300 300 300 300 302 302 302 304 302 304 306 306 309 313 324 326
321 321 322 322 322 322 323 323 322 321 320 320 320 320 314 302 300 312 322 320 311 309 307 305 303 303 300 300 299 298 299 299 300 300 301 301 301 302 303 307 305 305 310 320 324
320 320 320 320 321 322 323 322 321 321 320 320 321 320 307 295 307 313 312 309 308 307 305 305 304 304 301 300 300 299 297 298 299 299 299 299 298 299 302 303 302 303 308 314 322
319 319 319 320 320 321 322 322 321 320 320 320 321 312 303 299 310 312 310 309 308 307 304 305 305 302 302 298 300 299 297 298 298 298 298 300 297 297 303 301 301 302 305 309 316
319 318 319 319 320 321 321 321 321 320 319 320 320 309 298 306 312 308 308 307 308 309 307 307 307 303 301 301 298 296 297 293 295 298 298 298 295 299 299 300 301 303 303 304 309
318 318 318 318 319 320 320 320 320 319 319 320 310 303 296 313 306 309 308 306 306 307 307 306 306 301 300 298 295 294 291 292 293 297 297 297 296 298 300 300 300 302 302 302 303
318 317 318 318 319 319 319 319 319 319 317 314 309 299 300 299 307 306 306 307 304 304 303 303 301 298 297 295 288 290 290 290 293 294 295 295 296 299 299 299 301 302 303 303 303
318 317 318 318 319 319 318 314 304 303 308 298 299 296 297 305 307 304 305 303 303 302 296 297 295 292 295 296 294 294 292 291 291 294 294 295 295 298 300 300 301 302 303 304 304
318 318 318 318 319 319 315 304 302 304 295 304 303 301 303 305 299 301 305 300 300 295 296 295 291 296 297 295 293 293 291 290 292 294 294 294 293 297 299 299 301 302 303 303 305
317 318 318 318 318 316 310 307 314 308 295 296 303 301 302 304 298 299 302 299 297 293 295 292 293 296 294 291 291 292 291 290 290 291 292 291 292 293 296 296 298 300 302 303 302
317 317 318 318 312 312 306 313 315 314 290 292 295 299 302 303 297 302 303 299 294 293 293 293 292 293 292 291 293 289 293 292 290 290 287 291 286 292 295 294 296 298 299 300 300
317 317 318 317 311 306 308 314 314 305 279 293 295 304 303 298 297 297 302 299 293 292 294 291 290 291 291 292 294 291 293 292 291 290 289 289 287 291 290 292 296 298 298 298 301
317 317 317 312 314 310 312 313 308 289 279 288 295 294 295 296 295 297 298 299 297 293 292 292 293 293 294 291 294 293 292 291 291 290 283 289 288 289 291 293 295 295 297 296 299
317 316 315 312 306 312 313 307 287 281 291 288 290 293 293 291 293 295 293 292 290 286 287 290 290 292 293 291 292 293 291 284 282 282 281 285 285 290 294 294 294 296 296 300 300
316 316 314 312 312 312 309 293 281 287 287 294 293 292 289 292 292 292 291 289 293 292 289 285 283 290 293 293 290 291 291 285 279 279 283 284 283 290 295 294 295 295 298 300 300
316 314 311 311 312 309 299 284 286 288 292 292 292 288 288 291 291 291 291 290 292 292 287 286 286 292 292 293 294 289 287 292 283 278 283 286 288 293 296 294 294 295 297 300 299
307 309 308 312 311 305 293 288 290 293 296 294 288 290 286 288 288 289 289 294 292 294 295 290 284 290 291 294 293 292 293 285 287 281 279 284 284 287 290 293 295 296 298 299 299
303 297 304 311 308 297 285 289 292 295 297 293 291 288 289 288 290 289 289 292 295 293 294 291 289 287 291 289 289 288 287 288 288 286 283 280 285 292 294 295 296 298 298 299 299
298 291 303 309 290 290 286 292 296 295 299 296 296 293 290 291 289 289 289 292 296 295 289 292 290 285 287 291 293 292 290 290 285 282 285 284 285 291 292 295 296 297 297 298 298
290 291 303 304 284 285 291 292 295 294 296 296 295 296 295 291 287 291 291 295 295 293 292 293 289 283 285 288 290 288 289 291 291 289 285 283 286 292 293 293 296 297 297 297 297
287 285 289 290 289 290 289 289 290 298 297 298 296 297 294 291 294 290 290 295 295 294 296 295 288 286 282 287 290 287 288 289 289 286 285 286 289 291 293 294 295 296 297 298 297
287 285 286 284 285 291 292 291 289 290 297 298 294 296 294 290 291 290 293 293 296 297 295 293 286 288 289 289 291 290 288 288 286 288 285 288 289 292 295 296 298 300 299 297 295
287 286 286 286 288 290 290 289 289 291 293 292 293 295 295 293 292 290 292 293 292 296 294 294 286 288 285 289 289 287 289 290 289 290 290 290 290 295 297 299 299 298 298 296 296
291 291 287 285 285 286 286 287 290 292 293 296 295 293 292 295 298 298 299 298 297 294 292 289 286 286 283 287 287 284 288 289 290 291 291 287 292 296 293 294 296 298 298 297 296
Wind_Speed
16 16 15 15 14 13 13 12 11 7 7 7 7 6 4 4 2 4 9 5 4 7 5 3 2 0 3 4 1 2 3 5 7 8 6 9 7 3 1 4 3 4 2 4 14
16 15 15 14 14 13 13 11 11 10 7 6 7 4 4 3 5 10 7 5 4 8 6 9 6 3 1 4 2 3 3 5 2 4 5 9 5 9 6 6 5 5 3 4 13
17 17 14 13 12 12 13 11 9 10 9 7 5 5 3 3 4 6 3 8 9 9 4 5 6 3 1 1 4 2 4 6 5 3 3 9 5 5 5 6 7 10 11 11 12
15 15 15 14 12 12 13 11 10 9 10 7 6 5 4 4 6 2 2 8 9 6 8 7 6 6 4 5 0 7 1 3 6 5 5 8 6 6 8 2 3 4 7 14 16
15 14 15 14 13 9 11 11 10 10 9 9 7 6 5 5 4 1 6 6 5 6 9 7 10 5 6 5 4 2 6 2 4 7 6 7 3 1 8 7 5 2 6 14 15
15 14 14 14 14 11 11 10 10 9 8 7 6 5 3 6 2 2 4 4 5 4 6 7 7 4 5 4 4 4 5 5 3 3 3 4 4 2 3 1 6 7 9 12 15
14 14 15 15 13 13 12 10 10 8 6 7 5 3 3 4 2 3 4 1 2 2 5 2 5 2 6 7 2 7 6 4 3 3 2 1 5 8 4 1 3 6 9 9 13
16 17 16 15 14 13 12 9 8 7 7 4 4 2 4 1 1 2 3 4 2 1 1 3 3 7 2 6 3 4 3 6 3 4 2 5 13 4 1 5 9 10 7 9 11
20 18 18 16 15 15 14 11 8 7 5 4 2 2 3 3 3 3 1 6 5 3 4 4 4 4 4 7 5 1 5 6 4 2 0 7 5 3 2 3 5 7 8 10 11
20 21 19 18 17 17 15 12 9 7 4 3 2 2 4 5 4 5 1 5 3 5 4 3 3 5 4 8 10 7 5 3 7 3 2 5 12 7 6 5 7 8 9 9 11
21 22 20 20 20 20 17 10 8 4 3 3 6 1 2 2 2 3 4 5 4 4 7 1 8 12 16 12 2 6 5 6 2 3 4 9 11 16 9 9 12 13 13 13 14
21 23 23 22 23 22 12 6 7 6 7 6 1 2 2 2 4 4 6 9 7 9 7 5 12 11 7 8 8 8 7 4 2 1 2 3 12 15 14 9 13 14 14 15 13
20 23 25 24 23 16 14 7 2 2 5 4 4 5 4 5 3 14 11 6 8 9 14 11 2 10 8 9 9 6 11 5 1 2 2 6 14 9 6 6 9 14 17 12 12
25 25 25 25 14 14 15 9 0 0 3 7 8 6 5 6 4 2 8 5 3 13 10 8 2 10 7 9 10 8 9 6 7 4 6 1 8 5 5 8 9 13 9 9 9
26 27 30 26 12 13 10 10 1 2 7 7 7 2 8 9 11 4 1 3 10 10 9 7 11 13 10 8 13 2 7 6 3 5 3 5 7 3 2 9 12 7 5 4 2
24 30 31 11 8 14 6 8 2 5 11 7 7 12 13 10 3 5 6 5 4 5 2 3 1 4 5 4 7 13 10 7 3 2 7 8 8 8 6 11 4 2 6 2 1
27 29 26 10 12 15 13 4 6 7 5 10 9 11 19 11 9 9 15 14 12 10 12 4 4 3 4 9 6 4 13 4 3 5 6 0 6 12 8 9 4 6 4 1 2
26 30 22 10 14 17 9 8 7 8 10 5 8 15 16 13 13 10 16 16 18 12 12 14 10 11 7 6 12 16 14 7 8 6 2 1 12 6 7 4 5 5 4 3 3
27 14 12 12 20 14 18 13 15 9 11 11 16 17 12 14 9 15 20 20 20 17 14 12 14 4 6 4 14 9 11 4 8 2 2 6 8 11 12 10 9 9 5 5 3
4 10 7 18 20 15 18 19 10 5 12 17 12 12 19 21 15 19 18 18 13 19 12 8 6 1 4 4 3 11 13 5 5 7 7 9 8 13 2 10 7 8 8 6 5
2 5 2 17 17 16 19 16 7 5 8 13 11 10 14 16 19 16 17 8 23 18 15 8 3 4 6 14 19 7 8 5 4 5 7 6 9 5 15 9 14 8 5 5 5
2 5 1 11 12 9 17 18 11 11 5 5 6 7 14 18 17 15 22 17 16 17 18 10 5 6 12 1 5 11 15 18 9 10 6 3 12 3 4 4 9 9 7 6 5
4 3 2 6 8 15 9 13 9 13 13 9 9 9 5 15 13 19 11 3 10 17 18 11 3 5 2 5 4 10 8 15 10 3 10 8 14 2 1 5 5 10 8 6 6
3 4 1 3 2 13 11 21 12 13 12 6 7 6 9 9 9 16 11 3 5 8 7 15 3 13 18 10 9 9 12 13 14 6 16 12 28 6 6 10 9 8 7 7 6
1 1 1 7 5 12 12 18 17 11 10 9 5 12 13 10 14 10 12 6 3 7 5 11 12 9 15 0 6 8 15 20 17 24 15 28 22 19 12 13 15 13 10 8 7
1 0 2 1 8 12 9 12 23 12 15 12 11 14 9 10 11 10 11 9 7 5 12 5 2 5 6 8 6 3 12 20 24 24 21 24 25 2 9 12 11 13 12 11 10
1 1 2 1 5 5 6 6 13 13 2 13 16 11 15 13 6 4 4 9 9 12 11 9 8 5 14 8 5 7 22 16 15 21 20 24 28 7 7 11 13 14 13 14 13
Wind_Direction
188 189 191 192 181 185 190 188 178 183 195 187 176 184 189 221 231 198 233 244 162 154 154 131 97 234 131 116 134 206 186 163 157 169 138 153 178 153 79 139 181 183 311 74 140
186 188 188 179 182 178 189 192 175 165 182 184 167 180 186 192 201 231 255 200 199 165 158 174 171 177 105 125 145 221 197 157 144 147 152 169 196 151 177 161 205 192 156 149 149
182 183 177 177 184 168 190 185 179 156 167 172 166 175 196 189 226 223 192 209 188 178 185 170 144 170 211 231 154 190 190 157 161 146 152 167 193 159 175 194 211 215 179 163 172
182 178 176 174 177 175 185 180 170 163 157 169 180 184 181 203 206 89 135 180 176 170 147 144 169 185 163 188 83 151 116 170 143 141 144 168 138 186 211 122 49 213 174 165 183
186 180 172 168 167 193 183 180 175 168 162 172 180 181 168 195 244 96 133 143 141 171 172 165 174 176 177 156 147 128 143 112 111 130 114 133 163 280 236 202 149 60 182 197 195
184 177 172 163 165 187 172 184 169 171 165 179 178 166 193 214 339 114 115 135 162 155 171 164 187 184 114 154 199 116 117 129 137 125 95 184 161 199 240 198 210 195 211 216 211
187 175 174 163 171 173 160 169 165 162 163 181 173 197 168 227 329 98 139 222 142 175 168 198 147 176 142 129 106 133 116 142 138 150 126 184 224 221 205 191 232 215 220 225 224
181 176 174 166 165 162 147 147 150 157 154 179 146 214 234 41 165 137 144 97 120 95 143 120 130 99 56 131 93 114 141 183 130 181 146 212 244 210 201 213 242 244 233 231 229
176 171 170 167 158 152 145 147 146 152 142 136 138 218 214 140 172 164 171 149 122 76 61 95 69 86 149 155 128 45 186 196 168 196 139 231 238 152 176 184 237 256 254 237 240
174 169 169 160 157 145 138 138 139 127 115 122 73 188 164 198 160 138 88 138 122 125 112 78 87 158 146 191 196 169 182 207 207 136 204 229 252 233 199 235 249 254 260 251 243
168 165 168 160 156 148 140 135 151 151 245 179 181 265 102 87 131 161 160 123 121 134 173 81 198 199 190 193 133 145 173 182 130 111 219 241 263 270 258 257 259 246 243 247 245
170 167 167 161 156 154 167 189 184 146 174 215 99 246 179 231 130 169 175 164 170 175 140 166 217 202 178 163 153 167 169 167 110 94 237 293 274 267 264 243 239 253 252 239 243
169 168 163 157 154 158 186 204 359 220 128 181 199 202 175 164 197 177 180 149 174 161 191 201 159 160 163 166 175 194 211 181 176 133 89 308 273 240 243 242 246 246 250 263 249
177 167 156 146 150 169 199 235 287 220 152 164 196 233 154 156 224 115 180 157 142 188 171 225 88 160 169 189 190 208 203 188 146 186 251 328 285 248 250 265 242 250 238 244 241
172 171 158 159 129 173 173 201 243 244 195 165 160 71 160 181 131 195 176 104 162 158 185 173 171 165 189 200 192 185 152 156 109 205 271 183 258 257 337 270 251 227 183 176 228
174 170 162 163 148 169 136 140 230 107 229 176 144 173 163 182 115 121 162 68 105 129 81 102 24 192 165 77 176 141 108 79 82 194 249 218 233 248 204 233 279 157 134 175 276
163 165 168 163 161 146 128 152 113 192 143 174 179 179 180 168 151 168 172 182 173 175 198 139 175 159 154 113 128 174 160 134 202 211 255 17 217 263 232 234 244 163 188 293 239
173 170 177 176 138 142 146 131 201 183 190 120 149 160 183 152 191 168 164 186 214 210 169 191 202 174 171 206 169 186 187 180 194 196 198 124 233 245 252 257 245 259 268 274 208
178 179 177 178 153 156 157 192 209 168 151 147 141 160 185 192 190 179 194 200 194 199 198 201 213 175 185 156 156 176 212 166 107 44 235 212 259 268 252 249 237 239 232 230 222
142 177 189 162 157 163 172 200 206 163 150 163 162 185 183 188 181 194 183 202 203 198 215 182 173 175 145 139 214 201 139 162 221 193 227 233 261 239 164 222 219 217 216 204 186
121 114 335 157 157 172 194 196 162 191 169 176 179 161 197 182 198 196 196 189 200 186 197 162 161 125 168 210 186 162 183 196 194 210 217 250 247 207 222 208 207 186 190 190 190
83 124 158 167 159 189 195 198 169 168 186 165 181 159 184 184 192 195 208 211 194 167 190 186 125 160 199 59 320 226 208 192 194 199 236 279 254 127 233 225 183 181 177 168 174
79 96 63 189 172 185 178 196 180 173 183 176 168 193 173 178 190 206 197 165 167 173 180 170 179 140 148 223 213 219 199 218 221 44 204 202 255 149 183 196 188 170 171 171 155
105 148 64 64 253 180 167 187 191 193 173 160 158 152 155 182 204 192 174 161 173 191 147 157 139 205 217 223 141 201 200 208 202 202 227 223 250 161 199 212 193 189 185 182 178
35 73 80 171 202 184 162 177 181 179 200 160 192 199 177 175 183 180 178 141 133 160 140 174 208 201 237 135 185 195 197 197 201 222 215 238 242 244 205 202 206 201 186 179 187
66 167 118 102 151 162 160 188 185 178 171 182 208 190 191 185 187 171 150 173 167 169 187 173 239 152 230 195 183 209 214 203 209 222 233 250 257 10 207 197 199 204 193 191 193
57 42 12 71 143 145 175 146 188 138 352 219 196 193 208 214 188 95 148 164 148 164 180 155 142 144 232 164 133 271 218 206 211 222 222 233 246 223 190 201 212 208 197 198 189